Home > Weather > Vereeniging > Past weeks

Flag for South Africa Past Weather in Vereeniging, South Africa — Yesterday and Last 2 Weeks

Now
54 °F

Cool.


Feels Like: N/A
Forecast: 41 / 62 °F
Wind: N/A

Location: Vereeniging

Current Time: Jul 24, 2016 at 10:57:46 AM

Latest Report: Jul 24, 2016 at 10:00 AM


Visibility: N/A

Pressure: 30.15 "Hg (25.36 "Hg at 1443m altitude)

Humidity: 54%

Dew Point: 37 °F

Location of VereenigingLocation

Past Weather in Vereeniging — Graph

°F

Vereeniging Temperature Yesterday

Maximum temperature yesterday: 66 °F (at 4:00 PM)
Minimum temperature yesterday: 34 °F (at 7:00 AM)
Average temperature yesterday: 49 °F

High & Low Weather Summary for the Past Weeks

 TemperatureHumidityPressure
High75 °F (Jul 22, 3:00 PM)93% (Jul 12, 4:00 AM)30.57 "Hg (Jul 12, 4:00 AM)
Low28 °F (Jul 24, 6:00 AM)10% (Jul 22, 3:00 PM)30.07 "Hg (Jul 23, 4:00 PM)
Average49 °F48%30.34 "Hg
* Reported Jul 9 2:00 PM — Jul 24 10:00 AM, Vereeniging, Weather by CustomWeather, © 2016

Note: Actual official high and low records may vary slightly from our data, if they occured in-between our weather recording intervals... More about our weather records

Advertising

Vereeniging Weather History for the Previous 24 Hours

Scroll right to see more
 ConditionsComfort  
Time TempWeatherWind HumidityBarometerVisibility
10:00 AM
Sun, Jul 24
54 °FCool.N/A54%30.15 "HgN/A
9:00 AM43 °FQuite cool.N/A61%30.15 "HgN/A
8:00 AM34 °FChilly.N/A70%30.18 "HgN/A
7:00 AM32 °FChilly.N/A69%30.15 "HgN/A
6:00 AM28 °FChilly.N/A74%30.15 "HgN/A
5:00 AM30 °FChilly.N/A75%30.12 "HgN/A
4:00 AM32 °FChilly.N/A69%30.12 "HgN/A
3:00 AM32 °FChilly.N/A69%30.12 "HgN/A
2:00 AM32 °FChilly.N/A69%30.12 "HgN/A
1:00 AM34 °FChilly.N/A65%30.15 "HgN/A
12:00 AM34 °FChilly.N/A65%30.15 "HgN/A
11:00 PM
Sat, Jul 23
36 °FChilly.N/A56%30.15 "HgN/A
10:00 PM39 °FChilly.N/A48%30.15 "HgN/A
9:00 PM45 °FQuite cool.N/A39%30.15 "HgN/A
8:00 PM50 °FCool.N/A32%30.15 "HgN/A
7:00 PM54 °FCool.N/A24%30.12 "HgN/A
5:00 PM63 °FMild.N/A12%30.09 "HgN/A
4:00 PM66 °FMild.N/A11%30.07 "HgN/A
3:00 PM64 °FMild.N/A19%30.09 "HgN/A
2:00 PM64 °FMild.N/A19%30.09 "HgN/A
1:00 PM61 °FRefreshingly cool.N/A25%30.12 "HgN/A
12:00 PM59 °FRefreshingly cool.N/A31%30.15 "HgN/A
10:00 AM54 °FCool.N/A35%30.18 "HgN/A
Weather by CustomWeather, © 2016

See weather overviewHow to use our weather pages